Current Version              Previous Version:    01  02  03  04  05  06  07  08  09  10  11  12  13  14  15  16  17  18  19  20  21  22  23  24  25  26  27  28  29  30  
   31  32  33  34  35  36  37  38  39  40  41  42  43  44  45  46  47  48  49  50  51  52  53  54  55  56  57  58  59  60  

[Printable]
739
ASUS44 KEWX 210910
RWRTX
SOUTH TEXAS REGIONAL WEATHER ROUNDUP
NATIONAL WEATHER SERVICE AUSTIN/SAN ANTONIO TX
400 AM CDT SUN SEP 21 2014

NOTE: "FAIR" INDICATED FEW OR NO CLOUDS BELOW 12,000 FEET WITH NO
SIGNIFICANT WEATHER AND/OR OBSTRUCTIONS TO VISIBILITY.

* - THESE STATIONS ARE NOT NWS OR FAA STATIONS...AND ARE NOT SUBJECT
    TO NWS AND FAA QUALITY CONTROL.

TXZ171-172-183>190-211000-
TEXAS HILL COUNTRY AND EDWARDS PLATEAU

CITY           SKY/WX    TMP DP  RH WIND       PRES   REMARKS
JUNCTION       MOCLDY    71  69  93 E3        30.05S
*LLANO         PTCLDY    73  72  94 CALM      30.06S
BURNET         CLOUDY    73  69  87 CALM      30.05S
*HORSESHOE BAY PTCLDY    71  71 100 CALM      30.02F
*KERRVILLE     MOCLDY    72  69  90 CALM      30.05S
*FREDERICKSBRG CLOUDY    71  69  95 CALM      30.05S
*ROCKSPRINGS   MOCLDY    72  70  94 SE5       30.09R
*BOERNE STAGE  CLEAR     70  66  88 CALM      30.04S
*CASTROVILLE   PTCLDY    74  72  92 CALM      30.01S
HONDO          PTCLDY    72  70  93 N5        30.02S
*UVALDE        PTCLDY    75  74  95 NE3       30.01S
DEL RIO        CLOUDY    77  72  84 E9        29.98S
LAUGHLIN AFB   CLOUDY    75  73  94 SE9       29.99S
CARRIZO SPRGS  CLOUDY    73  72  94 E3        29.96F
$$

TXZ173-191>194-202-209-217>225-228-211000-
CENTRAL AND SOUTH CENTRAL TEXAS

CITY           SKY/WX    TMP DP  RH WIND       PRES   REMARKS
GEORGETOWN     PTCLDY    72  70  94 CALM      30.02R
AUSTIN/BERGSTM PTCLDY    72  71  97 CALM      30.00R
AUSTIN/MABRY   PTCLDY    74  72  93 CALM      30.01S
*AUSTIN/EXEC   CLOUDY    72  70  94 CALM      30.01S
*LAGO VISTA    MOCLDY    74  71  89 CALM      30.03S
SAN MARCOS     CLEAR     72  66  83 CALM      30.00F
NEW BRAUNFELS  CLEAR     73  71  93 N3        29.99S
RANDOLPH AFB   CLOUDY    74  72  92 NE3       30.00S
PT SAN ANTONIO MOCLDY    76  72  87 NE3       29.98S
SAN ANTONIO    MOCLDY    76  72  87 NE3       30.01R
STINSON FIELD  CLOUDY    76  72  87 NE5       29.98R
*PLEASANTON    CLEAR     73  71  95 CALM      29.98S
*LA GRANGE     CLEAR     75  74  95 CALM      29.97S
*GIDDINGS      CLEAR     72  70  93 CALM      30.03S
*GONZALES      CLEAR     75  74  98 CALM      29.98S
$$

TXZ163>164-176>182-195>201-210>213-226-227-235-211000-
SOUTHEAST TEXAS

CITY           SKY/WX    TMP DP  RH WIND       PRES   REMARKS
COLLEGE STN    CLEAR     73  69  87 CALM      29.99S
*BRYAN         CLEAR    N/A N/A N/A CALM      30.00R
*CALDWELL      CLEAR     72  72 100 CALM      30.03S
*CROCKETT      CLEAR     70  70 100 CALM      30.04S FOG
*BRENHAM       PTCLDY    74  72  93 CALM      29.99F
HUNTSVILLE     CLEAR     69  67  93 CALM      30.01R
CONROE         CLEAR     69  68  96 CALM      29.99S FOG
HOUSTON BUSH   PTCLDY    75  73  93 N3        29.97S
HOUSTON HOBBY  PTCLDY    77  75  93 CALM      29.96S
*HOUSTON SW AP CLEAR     67  66  97 CALM      29.96S
PEARLAND       CLEAR     78  75  90 NE6       29.97S
HOUSTON HOOKS  CLEAR     73  71  93 CALM      29.98S
ELLINGTON FLD  NOT AVBL
SUGAR LAND     CLEAR     77  74  90 NE6       29.96S
*HOUSTON EXEC  CLEAR     72  72 100 N3        29.98S
*CLEVELAND MUN CLEAR     70  70  99 CALM      30.00S FOG
*WHARTON       CLEAR     73  72  96 N3        29.96F
$$

TXZ214>216-236>238-211000-
THE UPPER TEXAS COAST

CITY           SKY/WX    TMP DP  RH WIND       PRES   REMARKS
*ORANGE        CLEAR    N/A N/A N/A CALM      29.99S
PORT ARTHUR    CLEAR     75  71  87 NE6       29.96S
GALVESTON      CLEAR     81  72  74 E9        29.96R
ANGLETON       CLEAR     74  73  97 N5        29.95S
*BAY CITY      CLEAR    N/A N/A N/A NE7       29.94S
PALACIOS       PTCLDY    76  74  93 NE8       29.93S
$$

TXZ229>234-239>247-211000-
TEXAS COASTAL BEND AND RIO GRANDE PLAINS

CITY           SKY/WX    TMP DP  RH WIND       PRES   REMARKS
VICTORIA       CLEAR     77  75  93 NE7       29.95S
*BEEVILLE      CLEAR     75  75 100 MISG      29.94F
ROCKPORT       CLEAR     78  76  93 N9        29.91F
*PORT ARANSAS  HVY RAIN  77  75  93 S8        29.90F
*PORT LAVACA   PTCLDY    76  75  95 NE7       29.93S
*INGLESIDE     LGT RAIN  78  74  88 S8G18     29.90F
CORPUS CHRISTI PTCLDY    78  76  93 N8        29.91F
CORPUS NAS     PTCLDY    82  78  88 E5        29.90S HX  91
*ROBSTOWN      NOT AVBL
ALICE          CLEAR     77  75  93 N5        29.92F
KINGSVILLE NAS CLOUDY    77  77 100 N6        29.92S
COTULLA        CLEAR     75  73  93 NE6       29.97S
*FAITH RANCH   PTCLDY    75  75 100 E6        29.98S
LAREDO         CLEAR     77  77 100 NE7       29.97F
$$

TXZ248>255-211000-
DEEP SOUTH TEXAS

CITY           SKY/WX    TMP DP  RH WIND       PRES   REMARKS
BROWNSVILLE    CLEAR     76  75  97 N3        29.88F
PORT ISABEL    PTCLDY    79  74  84 N5        29.88F
*SOUTH PADRE   CLEAR     81  75  83 NE6       29.87F
HARLINGEN      CLOUDY    76  75  97 N3        29.88F
*HEBBRONVILLE    N/A     75  73  96 NW3       29.95F FOG
MCALLEN        CLEAR     78  76  93 N5        29.90F
*WESLACO       CLEAR     76  73  92 CALM      29.89F FOG
FALFURRIAS     PTCLDY   N/A N/A N/A N3        29.91F
EDINBURG       CLEAR     77  74  91 CALM      29.90F FOG
*ZAPATA        CLEAR     76  74  96 CALM      29.93F
$$

TXZ213>215-236>238-242>244-246-247-251-254-255-211000-
CMAN STATIONS

STATION/POSITION TIME  TEMP    WIND        PRES    WAVE
                       AIR SEA DIR/SP/G            HT/PER
                 (UTC) (F)     (DEG/KT/KT) (MB)    (FT/S)
SABINE PASS      0900   76 82   50/  7/  8 1014.9
SEA RIM ST PARK  0900   75      50/  6/  7 1015.3
NORTH JETTY/GLS  0900   83 83  110/ 14/ 16   N/A
EAGLE POINT      0900   80 82   80/ 11/ 13 1014.5
MORGANS POINT    0900   78      60/  7/  8 1014.5
MISSION/ARANSAS  0800           20/ 10     1014.0
PORT O`CONNOR    0900           70/ 12/ 14   N/A
PORT ARANSAS     0900   83 84   70/ 15/ 17 1012.9
MALAQUITE BEACH  0900   84 85   70/ 10/ 11 1011.8
BAFFIN BAY       0900   80 84  320/  6/  8 1012.5
PORT ISABEL      0900   81 85     CALM     1011.9
$$

GMZ080-GMZ150>470-211000-
OFFSHORE BUOY REPORTS

STATION/POSITION TIME  TEMP    WIND        PRES    WAVE
                       AIR SEA DIR/SP/G            HT/PER
                 (UTC) (F)     (DEG/KT/KT) (MB)    (FT/S)
20 E GALVESTON   0900   83 83   90/ 16/ 17 1013.4    4/ 6
90 E PT ARANSAS  0900   84 85   90/ 16/ 17 1012.6    5/ 7
35 NE PT MANSFLD 0900   83 85  170/  2/  4 1011.4    3/ 6
200 E PT ISABEL  0900   83 85  100/  6/  6 1011.6    3/ 8
$$